ATLAS 5 CENTAUR DEB, 44003

Orbit data source: Space-Track

ATLAS 5 CENTAUR DEB, 44003 is space debris in HEO originally from a launch on Wed, 17 Sep 2014 UTC launched from the Air Force Eastern Test Range (AFETR). Debris objects in space refer to the collection of defunct objects orbiting the Earth. Examples of debris include non-operational satellites, rocket bodies, and fragments generated from explosions, collisions, or faulty payload assembly.

Loading next visibility...
Identifier
44003, 2014-055BJ
Orbit
HEO
Country
Flag of USUS
Related business
Flag of USUnited Launch Alliance/Lockheed Martin (US)
Manufacturer
Unknown
Mission
Spacecraft
Bus & Motor
Unknown
Mass
Unknown
Launch date (UTC)
2014-09-17 (11 years ago)
Launch vehicle
Unknown
Launch site
Air Force Eastern Test Range (AFETR)
Object type
Payload
Rocket body
Debris
Shape & HBR
Unknown shape, 1.1 m
Radar Cross Section
Small (<0.1 m²)

Expand to show TLE details & history
Last TLE update: 6 days ago

TLE from 6 days ago
0 ATLAS 5 CENTAUR DEB
1 44003U 14055BJ  26067.65089965 -.00000028  00000-0  00000+0 0  9995
2 44003  19.3880 186.6718 4646503  92.7558 319.2296  1.81352958 49639
Epoch: 2026-03-08T15:37Z
TLE epoch observation values (Epoch: 2026-03-08T15:37:17.729Z)
Latitude
0.00008°
Longitude
145.94055°
Altitude
16,433.478 km
Speed
4.573 km/s
True Right ascension
12h 26m 28s
True Declination
0° 00' 00"
Sunlit
Object was in daylight at epoch
Visualization orbit readout
Latitude
Unknown
Longitude
Unknown
Altitude
Unknown
Speed
Unknown
Apparent Right ascension
Unknown
Apparent Declination
Unknown
Sunlit
N/A
Visualization observer readout
Local Sidereal Time
15:12:30
Azimuth
Unknown
Elevation
Unknown
Doppler factor
Unknown
Orbital elements
Apogee altitude
35,227.112 km
Perigee altitude
8,829.15 km
Semi-major axis
28,406.268 km
Eccentricity
0.46465
Inclination
19.388°
RAAN
186.6718°
Arg. of periapsis
92.7558°
True anomaly
267.14113°
Mean anomaly
319.2296°
Eccentric anomaly
295.12628°
Mean motion
0.45334 °/min
Orbital period
794.11 mins
BSTAR
0
Loading maneuver chart data...
Computing Atmospheric mass density...

Documentation

Showing up to 5 results
|